Theta_e
295 296 295 295 295 295 295 295 296 297 297 298 299 299 298 298 299 299 298 297 296 296 296 296 296 296 295 294 294 294 294 294 293 293 293 294 293 293 293 291 290 290 290 288 288 287 287 287 287 286 284 281 280 280 280 281 281 281 280 280 280 280 280 279 279 276 276 277 279 278 278 279 278 279 279 279 278 280 282 279 279 279 279 279 279
296 295 295 295 295 295 294 294 295 296 296 297 297 298 298 298 298 297 297 297 295 295 294 295 295 295 295 296 295 294 294 295 293 293 294 294 294 294 293 291 290 290 290 289 287 287 287 286 287 286 283 282 281 280 280 281 280 280 279 279 280 279 279 279 277 276 275 275 276 278 278 280 278 280 279 278 278 278 278 279 279 279 278 278 278
296 296 295 294 294 294 293 293 293 293 294 295 295 296 297 296 296 296 296 295 293 294 294 294 294 294 294 294 295 294 294 293 293 292 293 294 294 294 293 292 291 290 290 289 288 287 286 286 286 286 283 282 281 281 281 280 280 280 279 279 279 278 278 277 276 276 276 276 277 277 277 278 278 278 279 279 279 278 277 277 278 279 279 278 278
295 294 294 293 293 291 292 292 291 291 292 293 293 294 295 294 293 295 295 295 293 292 292 293 292 293 293 293 293 293 293 292 292 292 293 294 294 294 293 292 291 291 291 290 289 287 286 286 286 286 283 282 282 281 280 280 279 280 280 279 279 278 278 276 278 278 278 277 277 277 278 277 277 277 278 278 277 277 277 277 278 278 278 279 278
293 293 292 292 290 290 290 290 290 290 291 291 291 292 292 293 293 293 294 294 293 292 290 291 291 291 292 292 293 293 293 293 292 292 292 293 293 294 293 292 291 291 291 291 289 288 287 286 287 285 283 283 282 281 279 279 279 280 280 279 279 278 277 277 277 278 278 278 276 276 277 277 277 277 278 277 277 276 276 276 277 277 277 278 278
292 293 292 290 290 289 289 288 289 290 290 290 290 290 291 292 292 291 293 294 293 291 291 290 290 291 291 292 292 293 293 293 293 292 292 292 292 293 292 292 291 291 291 291 290 288 287 287 287 286 284 283 283 281 279 279 279 279 279 279 278 278 277 277 277 278 279 278 277 275 276 276 276 276 277 277 276 276 276 276 276 276 276 276 277
291 291 290 289 290 289 289 289 289 289 289 290 290 290 290 290 291 291 291 291 292 291 290 290 290 290 291 291 291 292 292 292 292 292 292 292 292 292 292 291 291 290 290 290 290 288 287 287 287 286 284 284 284 282 280 279 279 279 280 279 278 278 277 277 277 277 278 277 276 277 276 277 277 276 276 277 277 276 275 275 275 276 276 276 276
290 290 290 290 290 291 289 288 288 289 289 289 289 289 290 290 290 291 290 290 291 291 290 289 290 290 290 290 291 291 291 291 292 292 292 292 291 291 291 291 290 290 289 289 289 287 286 286 286 285 284 284 284 283 281 280 280 279 279 279 278 278 277 277 277 277 277 277 277 276 276 276 276 276 276 276 275 275 276 275 274 275 275 275 276
290 290 290 290 291 290 289 288 288 288 288 289 289 289 289 290 290 290 290 290 291 291 290 290 290 289 289 289 289 290 290 290 291 291 291 291 291 290 290 290 290 289 289 288 288 287 286 285 285 285 284 284 285 285 283 283 281 280 278 278 278 278 278 277 278 277 277 277 276 276 276 276 276 275 275 274 274 275 276 276 275 276 275 273 274
290 290 290 291 290 289 288 288 288 288 288 288 289 289 289 289 289 289 290 290 290 290 289 290 290 290 290 289 288 289 289 290 289 290 290 290 290 290 290 290 289 289 288 287 286 286 285 285 285 284 284 284 284 285 285 285 285 282 280 279 279 279 278 277 277 277 277 277 276 276 275 275 275 276 275 276 276 276 275 275 274 275 273 273 273
289 290 291 291 290 289 288 288 287 288 288 288 288 288 288 288 288 288 288 289 289 288 288 289 290 290 289 289 288 288 288 289 289 291 292 292 289 289 288 288 288 288 288 288 287 286 285 284 284 283 283 283 283 285 286 286 285 285 284 283 282 280 278 277 277 278 277 277 278 277 277 276 276 276 276 276 276 276 276 275 275 274 273 272 271
290 290 290 290 289 288 287 287 287 288 287 288 287 288 287 287 287 287 287 287 288 287 288 288 289 289 289 289 289 289 289 289 290 291 291 292 291 288 288 287 287 287 287 286 286 286 285 284 283 282 282 282 282 283 284 285 285 285 285 285 285 285 284 280 278 277 278 278 277 277 277 277 277 277 276 276 275 276 276 275 275 274 273 273 273
288 289 289 288 288 286 287 287 288 287 287 287 287 287 287 287 287 287 287 288 287 287 287 288 288 288 288 288 288 288 288 290 290 291 291 291 292 290 288 287 287 286 286 286 286 286 285 283 282 281 281 282 282 282 282 282 284 285 284 284 284 285 285 286 285 281 281 281 279 278 278 278 277 277 277 277 278 275 275 274 274 274 274 273 273
286 288 287 287 287 286 286 287 287 288 287 286 286 286 286 287 287 287 287 286 287 287 287 287 287 287 287 287 288 288 288 289 290 291 290 291 291 290 288 287 287 286 286 286 285 285 284 283 282 281 281 281 281 281 281 281 281 282 281 281 281 282 285 286 285 284 283 282 281 279 279 279 279 279 279 279 277 276 275 274 275 274 273 273 274
285 286 286 286 285 286 286 286 287 287 286 286 286 286 286 287 287 287 287 287 287 287 287 287 287 287 287 287 287 287 288 289 290 290 290 291 291 290 288 287 287 286 286 285 285 285 284 283 283 282 281 280 281 281 281 281 281 280 280 280 280 281 282 283 282 281 281 281 281 281 280 280 280 279 279 279 278 278 278 276 276 275 273 272 271
285 284 285 285 286 286 285 286 286 286 286 285 285 286 286 286 286 286 286 286 287 287 287 287 287 287 287 287 286 286 287 290 290 290 290 290 291 288 287 287 286 286 285 285 284 284 284 283 282 282 281 280 282 284 283 281 280 279 279 279 279 280 281 283 284 283 281 280 280 280 280 280 281 279 279 279 278 277 275 272 272 271 269 268 269
284 284 285 285 285 285 285 286 286 286 286 285 286 286 286 286 286 286 285 286 286 286 287 287 287 287 287 286 286 286 286 288 289 289 290 290 289 287 286 286 286 285 285 284 284 283 283 282 282 281 281 280 282 284 284 282 280 279 278 278 278 279 279 281 284 284 283 283 283 283 283 283 283 283 283 283 279 276 273 272 271 271 270 268 269
285 284 285 285 285 284 285 285 286 286 285 286 286 287 286 286 286 286 286 286 286 286 287 286 287 287 286 286 287 286 287 287 289 289 289 290 288 286 286 285 285 284 284 284 283 282 282 282 282 281 280 280 283 285 285 282 279 279 278 278 277 277 278 279 281 282 284 283 283 283 283 283 283 284 284 283 282 279 274 272 272 271 270 271 270
286 286 286 286 285 284 284 284 285 286 286 287 287 286 286 287 286 285 285 286 286 286 286 286 286 286 286 286 286 286 286 286 288 289 289 289 288 286 286 285 285 284 283 282 281 281 281 281 282 281 281 281 284 285 285 282 279 279 279 278 277 277 278 278 279 279 280 280 281 281 281 282 282 281 281 283 283 280 276 275 274 272 271 272 272
285 284 285 285 284 284 283 284 285 286 286 287 286 286 286 285 285 285 285 285 285 285 285 285 285 285 285 284 285 285 285 285 285 288 289 289 289 287 286 285 284 283 283 282 280 279 279 279 281 283 283 283 284 285 285 284 280 279 279 278 278 277 279 278 278 279 279 279 280 280 279 280 280 280 280 281 281 280 277 277 277 275 274 273 273
284 284 284 284 284 284 283 284 285 286 286 286 286 285 285 285 285 284 284 284 283 284 283 284 284 284 284 283 283 283 284 284 284 287 288 289 289 288 286 285 285 284 282 281 280 278 278 278 279 282 283 283 284 285 286 285 283 280 280 279 279 280 280 278 278 280 278 278 277 278 278 277 276 276 277 277 277 277 278 279 278 277 275 273 272
283 282 283 283 283 283 284 284 284 285 285 284 284 285 285 284 284 284 283 283 283 283 283 283 283 283 282 281 281 281 282 283 282 285 287 288 289 289 286 285 285 284 282 280 279 278 278 278 278 281 284 284 284 285 286 286 284 280 280 282 284 284 280 278 278 278 277 276 276 275 275 274 274 273 273 274 274 274 275 276 277 276 276 275 273
282 282 282 283 283 284 284 283 284 284 284 284 283 284 284 283 283 282 282 282 282 282 282 282 281 281 281 280 279 279 279 281 284 283 285 287 288 288 288 287 287 284 282 280 279 279 279 279 279 281 283 284 284 285 286 286 284 281 283 284 285 283 280 277 277 277 275 275 274 274 274 274 273 273 273 272 273 273 273 274 275 275 274 274 274
279 281 282 282 282 282 282 282 282 282 282 283 282 283 283 282 282 282 281 282 282 281 282 280 280 280 280 280 278 277 277 278 281 283 283 286 288 288 289 289 287 284 282 281 280 280 279 279 279 282 283 284 284 285 286 285 283 283 284 285 284 282 277 276 276 275 274 273 273 273 273 273 273 273 273 273 273 272 273 274 274 274 274 273 274
280 280 281 281 281 282 281 281 280 280 280 280 281 282 282 280 281 280 279 280 280 281 281 279 280 280 279 279 278 276 276 277 278 281 283 284 286 288 288 289 288 286 282 281 281 280 281 281 281 282 283 284 284 284 285 285 285 284 284 284 283 279 276 275 275 274 273 272 273 273 273 273 273 273 274 273 273 273 272 272 272 272 272 272 271
280 281 281 281 281 280 280 280 279 279 279 279 281 282 282 282 281 281 279 280 280 280 280 279 279 278 278 278 277 277 276 275 277 278 282 283 284 286 287 288 287 286 284 282 282 282 282 282 282 283 283 283 283 283 283 284 285 285 284 284 282 279 277 275 274 274 273 273 273 272 273 273 273 274 274 274 273 272 272 272 271 270 270 270 269
279 280 280 281 280 278 278 280 280 279 275 277 278 280 280 280 280 280 279 279 279 279 279 279 278 278 278 278 277 275 275 274 275 276 280 281 282 283 285 286 286 285 283 282 282 281 282 282 281 282 282 283 283 283 283 284 284 285 284 283 282 281 278 276 275 274 274 274 273 273 273 274 274 274 273 273 273 273 273 272 271 270 269 269 268
279 279 280 280 280 278 279 278 279 279 278 278 278 278 277 278 279 280 280 280 279 279 279 278 278 278 278 278 276 274 274 274 275 277 279 281 282 283 284 285 284 283 282 281 281 281 281 282 282 281 281 281 282 282 282 282 283 283 283 282 281 281 279 278 277 276 275 275 274 274 274 274 273 273 273 273 273 272 272 272 271 269 268 267 266
278 278 278 278 279 277 278 277 277 278 278 277 276 277 279 279 279 279 279 279 281 281 280 279 279 279 279 278 276 275 275 276 278 281 281 283 283 283 283 283 283 283 283 283 281 281 280 280 279 279 279 279 279 280 281 281 281 282 282 282 281 280 279 278 276 275 275 275 274 274 273 273 272 272 272 272 272 271 271 270 270 269 266 267 267
277 277 278 277 278 277 276 276 275 276 276 276 276 275 276 279 279 278 279 280 282 284 284 280 280 279 278 279 280 280 280 280 282 283 283 283 284 285 285 285 285 283 283 284 282 279 279 278 278 278 278 278 278 279 279 280 280 280 280 281 280 279 279 278 277 277 276 275 275 273 272 272 272 271 271 270 269 269 269 270 268 268 265 265 265
276 277 277 278 278 277 276 276 276 273 274 274 272 275 275 274 281 283 282 281 282 283 284 285 285 284 281 279 281 285 284 284 283 283 283 283 284 285 285 285 285 284 285 283 280 279 279 278 278 278 278 278 278 278 279 279 279 278 278 279 279 278 278 278 278 276 275 275 274 274 272 272 271 270 270 269 268 267 267 268 267 266 266 265 264
275 277 277 277 277 277 276 276 275 274 274 272 273 272 274 275 275 279 283 283 283 284 284 285 285 285 285 284 280 279 283 284 283 283 283 283 284 284 285 286 285 285 285 284 280 279 279 278 278 278 278 278 278 279 279 278 278 278 278 277 277 277 277 277 277 275 275 274 273 272 272 272 271 270 270 269 269 267 266 266 266 265 265 265 265
273 275 275 276 276 276 276 275 275 275 274 274 273 272 274 273 275 276 276 282 283 284 284 285 285 285 285 285 284 283 282 283 283 283 283 283 283 284 285 285 286 286 285 283 280 279 279 279 278 279 279 278 279 279 279 279 278 278 278 277 277 276 277 277 276 275 274 274 273 272 272 271 271 270 269 269 268 267 266 266 266 265 265 264 263
272 273 274 274 275 275 275 275 275 275 274 274 274 274 274 275 275 275 276 275 275 278 283 284 284 284 285 285 284 284 283 283 283 283 283 283 283 284 284 284 285 286 285 282 280 279 279 279 279 279 279 279 279 279 278 278 278 277 277 277 277 276 275 275 274 274 273 274 273 272 271 271 270 269 269 268 268 268 266 266 265 264 264 264 264
271 272 273 273 274 275 275 275 274 274 274 274 274 274 274 273 273 274 274 274 275 276 277 279 283 284 282 283 284 284 283 283 283 283 283 283 283 284 284 282 281 282 283 283 281 280 279 278 278 278 278 278 278 278 278 278 277 277 277 276 275 275 274 273 274 273 273 272 272 270 270 270 270 269 269 267 267 267 266 266 265 265 264 263 263
271 272 273 273 274 274 275 275 275 275 274 274 273 274 275 275 275 276 276 276 277 277 277 278 279 281 283 283 284 284 284 284 283 283 283 283 283 284 280 280 280 280 281 282 281 280 279 279 278 278 279 278 278 278 278 277 277 277 277 276 275 274 273 273 273 272 272 272 271 270 269 269 269 269 269 268 267 267 266 266 265 264 264 263 263
270 271 272 273 274 274 274 273 273 273 275 274 274 275 276 276 276 276 277 277 277 277 278 277 278 278 281 279 281 283 284 283 283 283 283 283 284 283 280 280 279 279 280 280 280 279 278 278 278 278 277 277 277 277 277 277 277 276 276 276 275 274 273 272 272 271 271 270 269 269 269 268 268 268 268 267 267 267 266 265 264 263 263 263 262
269 270 271 272 272 273 272 273 273 275 275 275 275 276 276 277 276 276 276 276 276 276 276 276 277 277 277 277 280 280 281 283 283 283 283 283 282 281 280 279 278 278 278 279 278 278 277 276 276 276 275 276 276 276 276 276 275 275 275 274 274 273 274 273 273 271 271 270 269 268 268 268 267 267 267 267 266 265 265 264 264 263 263 262 262
269 271 273 274 275 274 272 272 272 273 275 276 276 276 276 276 276 276 276 276 276 276 276 276 276 275 276 276 276 279 279 279 279 278 279 279 280 280 279 278 277 277 276 276 274 275 275 274 273 274 274 274 274 274 275 274 274 274 274 273 272 273 273 271 271 270 270 269 268 268 268 267 267 267 266 266 265 265 264 263 263 263 262 261 261
269 270 272 274 274 274 273 273 273 274 275 277 276 276 276 276 275 275 276 276 275 275 275 275 275 275 275 275 276 276 277 276 276 276 277 277 278 277 276 276 276 275 275 274 273 273 273 272 272 272 272 272 273 273 273 273 273 273 272 272 271 271 272 271 271 270 269 269 268 267 267 267 266 266 265 266 265 264 263 262 262 262 262 261 260
269 271 272 274 275 274 273 273 274 275 276 276 277 276 276 276 275 275 275 275 275 274 274 274 275 274 274 275 278 278 274 273 272 273 274 275 276 276 275 275 275 274 273 273 272 271 271 271 271 271 271 271 271 271 270 270 270 270 271 270 270 270 270 270 270 269 269 268 268 267 267 267 266 265 264 264 265 264 263 262 262 261 260 260 259
267 269 271 272 272 272 274 274 275 274 275 275 276 276 276 275 275 275 275 274 273 273 273 273 273 271 273 277 278 279 274 270 269 271 273 274 275 275 275 275 275 274 274 273 272 270 269 268 268 268 268 268 268 268 268 268 268 268 269 268 268 268 268 268 268 268 268 268 267 267 266 266 265 265 265 265 263 262 260 260 260 260 259 259 257
267 268 269 269 269 270 271 273 274 275 275 275 275 274 274 275 275 274 273 273 272 271 271 271 272 272 273 277 277 278 276 274 273 273 274 274 274 274 274 274 274 274 274 273 272 272 271 270 268 267 267 267 268 268 268 268 268 268 267 267 267 267 267 266 266 266 267 266 266 266 265 265 264 264 264 262 261 261 261 260 258 258 257 257 256
267 268 267 267 267 268 268 270 272 273 273 272 272 272 272 273 273 273 273 272 271 271 271 271 270 271 272 275 277 276 276 275 274 274 273 273 273 273 272 272 272 272 272 272 272 273 273 272 271 270 270 268 267 266 268 268 268 268 268 267 266 266 266 265 266 265 265 265 265 264 263 263 262 262 261 260 259 259 258 257 257 256 256 255 254
268 268 268 269 269 270 270 270 270 271 270 270 271 270 270 271 272 271 272 272 271 270 270 270 270 271 271 273 274 275 275 274 273 273 273 273 272 271 270 270 270 270 270 270 270 271 272 272 271 270 269 268 268 268 268 267 268 268 268 268 267 266 266 266 266 266 266 266 264 263 262 261 261 261 260 259 258 259 257 257 257 256 255 254 253
269 270 270 270 270 269 269 270 269 270 270 270 270 270 269 269 270 270 270 270 270 270 270 269 269 269 270 271 272 273 273 273 272 272 271 272 271 269 268 268 268 268 267 267 268 269 269 270 270 269 268 266 265 264 264 264 264 265 267 267 267 267 266 266 266 265 265 265 264 263 262 261 261 259 259 258 258 258 258 256 255 256 255 254 253
267 268 268 268 268 268 268 268 268 267 268 268 268 268 268 268 267 267 266 266 267 267 267 267 267 267 267 269 270 271 270 270 270 269 269 268 267 267 266 266 265 264 264 264 264 264 265 267 267 267 266 265 264 262 261 261 261 261 261 262 262 262 262 262 262 263 263 264 263 262 261 260 259 257 258 257 256 256 256 255 255 254 254 254 253
265 266 266 266 266 266 266 267 266 265 266 266 265 265 265 265 265 265 265 265 265 265 265 264 265 265 265 267 267 267 267 266 266 265 265 265 264 264 264 264 263 262 262 262 261 262 262 262 263 263 263 262 262 261 260 260 259 258 258 258 258 258 258 259 259 259 260 260 260 260 260 259 258 257 257 257 256 256 255 254 253 252 253 253 252
263 264 264 264 264 264 264 264 264 264 264 265 265 264 264 264 263 264 263 263 263 263 264 263 263 263 263 264 264 264 264 264 264 263 262 262 262 262 261 261 261 262 261 260 259 259 259 259 259 260 260 260 260 260 259 259 258 257 257 256 256 257 257 257 256 256 257 258 258 258 258 258 257 257 256 256 256 255 256 254 253 253 251 251 252
262 262 262 262 262 262 263 263 264 263 263 263 263 263 262 262 262 261 262 262 262 261 261 261 261 261 261 262 262 263 263 263 262 261 260 260 260 260 260 260 260 260 259 258 257 257 257 257 257 257 258 258 258 258 257 257 257 256 255 257 259 259 258 257 256 255 256 256 257 257 257 257 256 256 256 256 255 254 254 253 253 253 252 252 252
260 260 260 260 260 260 261 261 261 261 261 261 262 262 261 261 261 260 260 260 260 259 259 259 259 259 259 259 260 261 261 261 261 260 259 259 258 258 258 258 258 258 257 257 256 256 256 256 256 256 256 256 256 256 256 256 255 255 257 260 260 259 258 257 256 256 256 255 256 256 256 256 255 255 254 254 254 253 253 253 252 252 252 252 252
Wind_Speed
9 10 8 10 9 11 10 8 9 9 8 9 9 9 8 8 8 8 6 9 7 8 8 9 8 9 9 9 9 9 8 8 7 7 7 9 8 9 9 10 12 11 10 10 9 10 12 13 14 13 10 10 9 8 8 8 7 7 7 7 8 7 7 8 8 3 1 2 3 7 5 8 7 8 8 7 6 5 4 4 4 3 3 3 3
11 10 10 10 11 11 9 7 9 8 9 9 10 9 8 8 7 6 8 8 8 9 9 8 8 8 9 10 10 9 9 9 7 8 9 10 11 9 9 11 12 13 10 10 11 9 11 12 12 11 9 11 10 10 9 9 9 9 8 8 9 8 6 8 6 7 6 1 3 4 5 6 7 7 10 9 8 5 6 4 3 4 4 3 4
8 8 9 10 12 10 8 9 8 9 10 10 10 10 9 8 7 9 9 7 7 9 9 9 9 9 9 9 9 9 9 9 8 9 10 12 12 11 11 11 13 13 14 15 15 13 11 12 13 11 8 10 9 9 9 10 9 10 10 8 10 9 9 7 6 5 8 5 4 6 6 5 5 7 8 5 4 5 6 6 5 4 3 4 5
6 7 7 9 8 8 10 8 9 9 10 10 10 9 9 8 7 9 9 7 9 8 8 8 8 9 10 9 9 9 9 9 9 10 12 13 12 13 12 12 13 14 15 15 14 13 14 13 13 13 12 13 11 10 9 9 10 10 10 10 10 10 9 7 6 6 4 7 4 5 5 7 2 3 4 3 5 5 5 3 3 4 4 4 5
6 7 7 9 7 8 9 7 9 10 11 8 10 8 9 8 7 8 8 8 9 8 8 7 8 9 10 10 10 10 10 10 11 11 11 11 12 12 13 13 13 14 14 14 14 14 14 15 15 13 13 14 12 11 9 11 10 10 11 10 10 8 7 7 7 6 8 8 5 2 4 3 2 3 5 6 3 3 2 4 4 5 4 4 4
6 7 6 7 7 8 8 7 10 10 9 8 9 9 9 8 8 7 7 10 9 9 9 8 9 10 10 10 10 10 10 10 11 12 12 11 11 11 11 11 12 13 13 13 12 12 13 14 13 13 13 15 14 12 12 13 10 11 12 10 9 8 9 7 7 7 8 8 9 6 3 6 3 3 4 5 6 5 4 3 2 4 4 5 5
5 6 6 6 7 9 9 9 9 8 9 10 8 8 8 9 8 9 8 9 9 9 9 10 9 10 11 10 10 10 10 10 11 12 12 12 12 12 12 12 11 11 11 12 12 11 12 13 13 13 14 15 14 14 12 12 12 14 13 12 10 10 10 9 8 8 8 8 4 5 7 3 4 5 3 5 3 4 6 4 6 5 5 6 6
6 7 6 8 10 11 8 7 8 9 8 8 8 8 8 8 9 9 7 9 10 9 9 10 10 9 10 10 10 9 9 10 11 11 11 11 11 12 12 12 12 12 12 12 12 12 12 12 12 12 14 14 13 12 14 14 11 12 10 10 10 11 10 8 8 8 8 8 6 7 4 5 4 3 3 4 3 4 5 7 8 6 6 5 6
7 7 7 10 12 8 6 7 7 7 7 7 8 9 9 9 8 8 9 9 9 9 8 8 10 10 9 9 9 8 9 11 10 11 11 12 11 12 12 13 13 13 12 12 12 12 12 13 13 13 14 14 17 17 16 15 13 11 9 10 10 10 8 7 8 8 7 8 6 4 6 5 6 7 7 6 9 10 5 6 7 5 3 4 5
7 6 8 11 8 6 7 6 7 6 7 9 9 8 8 8 8 9 9 9 9 8 7 9 10 11 10 10 9 8 10 9 12 17 15 12 11 11 11 12 12 12 12 11 11 11 12 12 13 18 18 18 19 19 19 19 17 14 14 13 13 11 11 11 10 9 9 9 9 9 8 8 8 10 9 9 7 3 5 6 7 5 2 4 4
6 7 10 9 7 6 6 6 5 8 8 7 6 7 8 7 8 8 8 8 9 7 7 10 11 10 11 11 11 10 10 10 16 17 19 19 13 11 11 11 11 11 11 12 13 13 12 12 11 13 14 15 17 20 19 19 18 17 17 20 20 19 14 12 11 11 11 11 9 9 10 10 9 9 9 8 6 8 7 6 6 4 6 5 7
7 8 9 7 6 5 5 5 7 8 6 7 7 7 7 7 8 8 8 8 8 7 9 11 10 10 10 10 12 12 11 12 17 18 19 19 17 12 10 10 10 11 11 12 12 11 12 12 11 9 10 13 14 14 15 17 18 16 12 8 16 17 17 20 17 12 11 10 10 11 10 10 10 9 8 8 8 6 7 6 7 7 7 7 5
6 7 6 5 5 4 5 6 7 7 6 6 6 6 7 8 8 8 10 9 6 8 11 10 11 10 10 11 12 12 11 13 17 18 18 19 19 16 10 11 10 11 12 13 13 12 10 9 9 9 9 13 10 9 10 11 13 18 18 22 21 17 15 13 14 18 16 14 14 11 12 10 10 10 11 10 8 8 7 6 7 7 7 6 7
5 6 5 4 4 4 4 5 7 7 5 5 5 7 7 10 9 8 7 6 8 10 10 11 11 10 11 12 12 11 12 13 17 18 18 19 19 17 12 12 12 12 12 12 11 11 11 11 10 10 8 8 10 12 10 11 12 12 11 11 10 13 13 14 14 13 12 12 12 13 10 10 11 9 10 9 10 9 8 8 7 7 7 9 4
4 4 5 4 4 4 5 5 7 7 5 5 6 8 8 8 8 8 7 9 10 11 11 11 11 10 11 11 11 11 11 13 15 18 18 19 20 18 13 11 11 10 10 11 11 12 11 11 10 11 9 11 12 13 12 12 12 11 10 10 9 8 8 8 8 8 7 5 8 7 9 9 7 8 9 9 10 8 9 8 9 8 3 3 2
4 4 5 4 5 5 4 5 6 6 5 5 7 8 8 9 9 7 7 8 8 7 9 9 10 11 11 11 11 13 10 13 15 17 18 18 20 13 11 11 11 11 11 10 10 10 9 10 10 10 11 12 13 16 13 9 10 12 12 10 8 6 5 3 6 6 6 5 6 7 7 8 9 8 9 9 7 5 6 5 5 4 5 4 6
4 4 5 4 4 4 4 5 6 6 5 6 8 8 8 9 8 6 7 8 9 9 10 9 9 10 10 10 12 12 10 12 15 17 18 19 15 10 10 10 10 11 11 9 10 9 9 10 10 10 10 10 11 17 18 17 10 13 12 12 10 8 7 5 9 10 10 10 10 11 12 13 14 14 15 15 9 8 7 6 7 6 6 6 5
3 4 5 4 4 4 4 4 6 6 6 8 9 8 8 7 8 7 9 9 10 10 9 9 9 9 10 11 11 11 11 10 15 16 18 19 16 11 9 9 10 10 9 9 8 8 10 13 12 11 11 10 15 19 19 16 12 13 13 13 12 10 7 5 5 6 12 12 12 12 12 12 14 15 16 16 16 13 10 10 7 7 7 7 7
5 5 6 5 4 4 4 4 6 7 7 9 8 8 8 9 7 5 8 8 10 7 7 9 9 9 10 11 11 13 11 10 14 16 17 18 15 10 9 8 10 10 8 8 6 7 7 10 15 12 10 10 18 20 22 19 12 13 13 12 12 12 10 10 10 9 8 8 8 9 9 11 9 8 10 17 18 15 10 8 7 8 8 6 5
5 4 5 5 4 5 4 5 6 7 9 8 7 8 6 6 6 7 7 7 8 7 8 8 10 10 8 9 9 10 11 9 9 15 16 17 19 12 8 9 11 10 9 8 7 6 7 6 10 15 15 16 17 20 22 22 14 12 11 12 13 14 8 10 9 9 10 9 8 8 8 7 7 7 7 8 10 11 10 8 8 8 7 6 6
4 5 5 5 5 5 5 5 7 8 7 8 7 6 6 7 6 6 8 7 7 8 9 9 10 10 8 8 8 9 9 10 9 14 16 17 18 17 9 11 10 9 8 8 8 8 7 6 5 11 16 18 20 22 22 22 18 13 14 13 11 10 12 10 10 11 8 7 7 6 6 5 5 5 6 7 7 6 7 9 8 8 8 7 6
4 5 5 6 6 6 6 6 6 7 6 6 7 8 7 6 7 7 7 7 8 10 9 9 9 10 8 8 8 8 8 11 8 11 16 17 18 20 12 11 10 9 9 8 7 7 7 7 7 13 21 21 22 23 24 23 21 11 10 7 8 12 11 8 8 8 7 7 6 6 6 6 6 6 6 7 7 6 5 6 6 7 6 7 8
4 5 6 7 7 7 6 6 8 5 6 6 7 9 7 6 7 6 7 7 9 10 10 8 8 9 8 7 6 7 6 7 11 10 14 18 19 19 20 14 12 11 10 10 9 9 7 8 9 17 20 20 20 21 21 23 19 11 14 14 13 14 12 8 8 8 8 7 7 7 7 7 8 8 8 7 6 5 5 5 6 6 5 5 4
5 6 7 7 8 8 6 7 7 6 6 6 6 8 8 6 7 7 7 7 8 9 9 7 7 9 9 8 6 6 5 6 8 12 11 15 17 19 20 18 13 12 9 9 7 8 8 9 8 16 18 20 21 23 23 22 14 18 18 18 18 15 9 8 8 8 8 7 7 8 8 8 7 8 8 7 6 6 5 5 5 5 5 4 4
6 7 8 8 8 8 7 7 7 6 6 5 7 8 8 6 8 6 6 7 8 9 9 6 8 8 8 8 7 6 6 6 6 8 13 14 15 17 18 18 16 13 9 7 7 6 7 10 14 19 20 20 21 22 20 22 21 20 20 19 16 8 8 8 9 8 8 9 9 8 7 8 9 7 4 5 5 4 4 3 3 3 4 4 4
8 9 8 8 9 7 8 8 6 6 6 6 7 7 8 7 7 7 6 7 7 8 8 6 7 7 8 8 7 6 6 6 6 6 7 9 10 14 16 16 17 18 16 9 9 11 13 15 18 17 16 15 13 11 9 10 17 18 18 15 9 8 9 9 8 9 9 9 8 9 8 6 5 5 6 6 6 6 6 5 5 4 4 4 4
8 9 9 9 8 6 7 8 7 6 5 6 6 7 6 6 7 7 6 7 7 7 8 7 7 7 8 8 7 6 6 5 6 6 6 6 6 7 9 10 13 13 10 6 8 8 11 11 10 13 11 16 16 14 12 12 12 12 11 11 9 9 9 9 10 11 9 7 7 6 5 5 5 5 6 6 6 5 6 6 5 5 5 4 5
8 9 9 8 8 7 8 8 8 8 7 6 7 7 6 6 7 9 8 8 8 8 7 8 8 8 8 7 6 5 6 6 6 7 7 7 6 5 6 6 6 7 8 6 6 7 7 8 11 8 8 8 10 8 8 8 9 9 8 9 9 9 9 11 8 5 5 6 5 5 5 6 7 6 6 6 6 5 5 5 5 5 5 5 4
8 9 8 7 8 6 7 7 7 7 8 6 6 7 7 6 7 8 6 6 7 8 8 8 8 7 7 7 6 6 5 7 10 7 6 7 7 6 6 7 7 7 8 10 7 6 6 7 7 7 8 8 9 9 9 8 8 8 9 8 8 8 8 8 9 9 8 7 8 8 7 6 6 6 6 6 5 5 4 5 4 6 4 4 5
8 9 7 7 7 6 6 6 6 7 7 7 8 7 7 9 8 7 8 7 10 11 8 8 7 6 7 7 7 8 9 8 4 9 12 12 13 12 9 8 9 8 10 16 10 7 7 7 7 8 8 8 9 9 9 9 8 7 6 7 7 7 8 8 8 8 8 8 8 8 8 7 7 7 7 6 5 5 5 7 5 5 6 5 4
8 8 6 6 6 6 7 7 6 6 7 7 7 8 8 6 8 11 12 9 8 10 13 13 11 10 8 7 7 8 5 4 9 10 11 12 13 13 11 11 12 13 16 11 8 8 7 8 8 8 8 8 8 8 8 7 7 7 6 6 6 7 7 7 7 7 8 8 7 7 7 8 8 7 8 7 8 6 5 3 5 5 5 5 4
9 9 8 8 8 8 7 7 7 7 7 6 6 7 7 8 8 6 8 10 10 10 11 12 11 10 11 9 5 3 5 7 8 10 11 12 13 13 14 14 15 16 18 16 9 8 8 8 8 8 8 9 9 8 8 8 8 7 7 7 7 7 8 8 7 8 8 8 8 7 7 7 8 8 7 7 7 7 6 5 5 5 4 3 4
8 9 8 8 8 8 7 7 7 7 7 7 6 5 6 6 7 8 5 4 7 9 8 9 9 8 7 8 8 6 6 6 10 10 11 11 12 13 15 16 16 17 18 12 8 9 8 8 8 7 8 8 8 8 8 8 8 7 7 8 8 7 8 6 7 7 7 8 8 8 8 7 7 7 6 7 7 6 6 6 5 5 5 5 4
8 8 8 8 8 8 7 7 7 7 6 6 6 6 6 6 7 6 6 6 5 4 4 5 5 5 7 7 7 7 7 8 9 10 10 10 11 12 14 11 15 17 14 8 8 7 7 7 7 7 7 7 6 6 7 7 7 7 7 7 6 6 6 6 7 7 6 7 7 6 7 7 6 7 6 6 6 6 7 6 6 6 5 6 6
8 9 11 9 7 8 7 7 7 7 6 6 6 6 7 6 5 5 6 6 5 5 4 2 3 5 4 4 6 7 8 9 10 10 11 11 12 13 14 9 9 9 11 9 8 7 7 8 7 7 6 7 6 7 7 7 7 7 8 7 6 6 6 7 6 6 6 6 6 6 6 7 7 7 8 8 7 6 6 6 6 6 6 6 5
8 8 7 7 7 7 7 7 6 6 6 6 6 6 5 5 5 6 5 5 5 5 4 3 2 3 5 5 6 8 9 9 9 10 10 11 12 13 8 8 7 8 8 8 8 7 7 7 7 7 6 6 6 6 6 7 7 7 6 6 6 6 6 6 5 6 6 6 7 7 7 7 7 7 6 7 8 8 6 6 6 6 6 6 5
8 8 8 7 7 7 7 6 6 6 6 6 5 5 5 4 4 4 4 5 5 4 3 2 1 2 1 0 1 5 8 8 9 9 9 10 13 10 6 5 6 5 5 6 5 5 6 5 5 5 5 6 5 5 5 5 5 5 5 5 6 6 6 6 7 6 7 6 6 7 8 7 7 7 8 7 6 6 6 6 6 7 6 6 6
9 8 8 8 7 8 7 7 7 6 6 5 5 5 5 5 5 5 5 5 5 4 4 3 2 3 3 2 2 2 2 4 6 6 7 8 7 6 5 4 4 5 5 3 3 3 4 4 4 5 5 5 6 5 5 5 6 6 6 6 7 7 10 9 9 8 8 7 7 7 7 7 7 7 6 7 7 6 6 6 7 6 6 6 6
7 10 13 13 10 7 7 7 7 5 5 5 5 5 5 5 5 4 5 4 4 4 3 3 3 3 3 1 0 1 2 3 4 4 3 4 3 3 4 4 4 4 3 3 3 4 4 4 4 4 5 5 6 6 6 6 6 6 7 7 7 7 8 7 7 7 7 7 7 7 7 7 7 6 7 6 6 7 7 7 7 7 7 6 6
9 8 8 12 8 8 7 6 6 5 5 5 5 5 5 5 5 5 5 4 5 4 4 4 4 4 3 2 3 3 4 3 2 3 3 2 3 2 3 4 4 5 5 4 4 5 5 5 5 5 6 6 6 6 6 6 7 7 7 7 8 8 8 8 8 8 8 7 7 7 7 7 7 7 6 7 7 6 7 7 7 7 7 6 6
8 9 8 8 8 7 6 5 5 5 5 5 5 4 5 4 3 3 3 4 4 4 4 3 3 1 1 3 5 4 3 3 2 2 2 3 3 3 3 3 4 4 4 4 4 4 4 5 5 5 5 5 5 6 6 6 6 6 7 7 7 8 7 7 8 8 8 8 8 8 7 7 7 8 7 6 5 6 7 7 6 6 5 5 5
9 8 8 7 8 6 5 4 4 4 5 4 5 5 3 3 4 4 3 4 3 3 4 3 1 1 2 5 6 7 3 1 2 2 2 2 2 2 2 2 2 3 4 4 4 4 4 4 4 5 5 5 6 5 5 6 6 7 7 7 7 7 7 7 7 8 8 7 7 8 7 7 7 7 7 6 6 6 6 5 5 6 5 5 5
9 8 8 7 6 5 5 5 5 4 4 4 4 3 2 3 3 3 3 3 4 3 3 3 1 1 2 5 5 7 2 2 2 2 2 2 1 1 1 2 2 2 3 3 4 5 5 5 5 5 5 6 6 6 7 7 7 7 7 7 7 7 7 6 6 7 6 7 7 7 7 7 7 6 6 6 6 6 6 6 6 6 5 6 6
9 9 8 6 5 4 4 4 4 4 4 3 3 1 1 2 2 2 3 3 3 2 3 2 2 2 2 3 4 4 3 3 3 3 2 1 1 1 2 2 2 2 2 2 3 3 4 4 4 4 3 4 4 4 5 5 6 7 7 7 6 6 6 7 7 7 7 7 6 6 6 6 6 6 6 5 6 6 5 5 6 6 5 5 6
8 7 6 6 5 3 3 3 3 3 2 2 2 2 1 2 1 2 2 3 1 1 1 1 2 3 2 3 3 3 2 2 2 2 3 3 3 3 3 2 2 2 2 1 1 2 3 4 4 4 4 2 2 3 3 3 5 5 6 7 7 7 6 7 7 7 7 8 7 7 6 6 6 6 6 6 6 6 6 6 6 5 5 5 6
7 6 5 5 5 3 3 4 3 3 3 3 3 3 3 3 3 3 2 1 0 0 0 0 0 1 1 2 2 1 0 2 2 2 1 3 3 4 3 3 3 2 2 1 1 0 1 2 4 4 4 4 3 3 2 2 2 2 2 2 4 5 5 5 5 6 7 7 7 7 7 6 6 6 6 6 6 6 6 5 5 7 7 7 7
7 6 5 4 4 3 3 3 4 4 4 4 4 3 3 3 3 3 2 2 3 1 2 1 0 0 1 1 1 1 1 2 3 3 3 4 3 4 4 4 3 3 3 3 3 3 2 2 2 3 3 4 4 3 3 3 3 3 3 4 4 5 5 4 5 5 5 5 5 6 7 6 6 6 5 6 5 6 6 7 7 8 7 7 7
7 6 5 5 5 4 5 5 4 4 3 3 3 3 2 3 3 3 2 3 4 3 3 2 2 2 1 2 2 2 2 3 4 3 3 4 4 4 3 3 3 3 3 3 4 4 4 4 3 4 4 4 3 3 3 3 3 4 4 4 4 4 6 6 6 5 5 5 5 6 7 6 6 6 6 7 7 7 7 6 6 5 6 6 6
7 7 6 6 5 5 5 6 5 5 5 4 4 4 3 4 4 4 4 3 4 4 3 4 3 3 3 3 2 2 2 1 4 4 3 3 3 3 3 4 3 3 3 3 3 3 4 4 5 4 4 4 4 4 4 4 5 5 5 4 5 8 8 7 6 6 7 6 6 5 5 6 7 7 7 7 7 6 6 6 6 6 5 5 5
7 7 7 7 7 6 5 5 6 6 5 4 5 5 5 4 4 4 4 4 4 4 4 5 6 6 5 4 3 3 2 2 2 2 3 2 3 2 3 3 3 3 3 3 3 3 3 3 3 4 5 5 5 5 4 4 4 4 4 4 7 8 7 8 7 7 7 5 6 5 6 6 6 6 6 6 6 7 6 6 6 6 6 6 6
6 7 7 7 7 6 6 6 6 6 6 6 6 5 5 5 4 4 4 4 4 3 4 4 4 5 6 4 4 5 4 4 4 3 3 3 3 3 3 3 3 3 4 3 3 2 2 2 2 2 4 5 4 3 4 4 4 4 5 7 8 8 8 7 5 6 7 5 5 6 6 7 7 7 6 5 6 6 7 6 6 6 6 6 6
Wind_Direction
198 212 196 211 211 216 212 206 213 211 216 214 219 222 221 218 219 218 217 223 213 221 221 220 216 214 214 216 215 213 210 210 201 196 201 210 212 212 206 201 209 218 216 214 213 206 210 212 213 212 195 196 198 194 197 196 193 200 197 195 201 192 176 183 196 175 347 13 150 172 158 150 173 186 183 186 191 198 193 196 194 195 199 216 234
207 205 201 205 210 215 211 209 211 211 217 216 219 221 220 217 211 207 219 223 209 219 220 220 219 216 217 219 219 216 214 213 202 197 204 209 213 208 209 206 209 212 206 213 211 212 210 214 217 214 203 206 193 196 193 189 191 191 197 192 200 194 196 173 193 160 180 103 85 105 134 174 168 177 187 183 195 177 200 202 202 197 209 210 223
215 209 207 207 213 208 204 209 203 212 216 219 220 219 219 219 202 209 216 217 214 217 217 215 216 216 220 222 220 220 215 214 205 202 210 211 212 211 209 209 214 215 212 212 208 205 207 211 217 210 195 207 208 204 190 194 188 193 196 193 196 197 195 193 149 165 159 183 147 157 163 167 177 178 191 193 174 174 193 206 207 207 207 212 224
217 216 221 224 216 205 209 206 201 211 217 219 221 220 218 220 207 213 214 211 216 216 215 215 213 215 220 222 220 220 218 215 210 210 214 213 214 214 211 210 213 216 218 217 211 203 207 208 215 207 196 206 206 202 198 189 186 194 197 195 197 194 193 191 190 140 153 149 176 172 167 157 159 109 158 143 159 185 202 206 199 214 213 213 219
218 223 222 230 225 218 216 204 209 215 220 217 224 220 221 220 215 218 212 218 219 213 217 210 215 215 219 221 219 220 220 215 216 218 220 219 218 217 215 215 216 219 219 220 216 209 208 209 209 202 197 206 205 202 189 193 193 191 194 191 195 188 175 182 168 138 142 159 135 113 129 113 90 103 152 162 176 191 192 207 208 212 227 225 217
221 225 227 233 235 232 225 210 218 221 221 223 224 220 221 220 221 224 217 223 218 215 213 209 211 216 219 219 217 220 218 217 219 222 221 219 221 222 223 220 221 221 221 221 220 215 214 215 212 200 201 207 208 196 190 197 190 194 194 190 187 170 170 169 153 141 147 150 153 131 157 159 133 145 173 176 169 188 211 220 230 232 221 242 230
220 226 227 230 238 234 223 220 218 219 219 222 221 219 218 219 218 223 216 221 221 217 216 215 215 214 220 217 218 217 217 217 223 225 225 221 220 221 223 223 223 224 225 223 220 217 218 219 214 204 205 209 207 198 186 194 196 197 193 184 178 169 169 164 152 146 145 135 129 149 146 140 147 163 156 173 186 187 198 211 243 218 213 220 241
216 221 220 230 233 235 224 221 219 220 221 220 220 220 219 218 219 221 213 220 223 221 215 215 221 216 220 217 218 215 216 220 223 225 225 223 222 223 222 222 222 222 223 221 218 217 216 217 217 212 212 213 207 196 193 198 195 198 189 175 174 169 167 160 152 144 144 148 153 154 156 148 128 94 95 130 179 251 211 204 228 226 219 217 224
220 219 222 231 237 232 225 222 221 223 222 222 222 222 219 221 221 219 218 223 223 225 221 217 221 224 225 224 223 215 218 222 221 220 222 224 223 225 222 223 222 223 223 222 219 217 215 214 215 214 211 209 207 206 203 195 190 192 182 171 172 172 161 162 158 151 150 145 133 128 148 159 178 159 158 172 197 210 189 181 229 235 195 207 245
219 223 229 236 240 228 223 222 220 220 223 223 225 222 221 222 222 224 225 225 225 222 221 223 225 226 224 225 224 222 225 225 222 220 218 219 219 222 222 224 223 225 226 227 227 222 222 220 222 216 208 206 209 211 210 207 202 192 175 176 176 172 170 166 166 162 154 157 165 163 168 185 183 189 188 198 194 146 147 184 213 219 131 254 264
224 227 237 239 236 227 224 229 221 227 227 229 228 224 225 223 225 230 231 227 227 225 220 228 228 226 225 223 222 224 227 226 224 223 223 222 221 223 221 223 220 222 224 225 225 222 223 221 222 216 212 210 213 214 210 205 201 201 191 185 179 174 169 168 166 165 167 173 170 173 181 185 191 185 195 190 183 190 198 187 200 164 198 206 243
229 234 239 245 238 231 228 228 228 235 227 228 224 224 225 224 226 226 228 228 226 215 222 228 231 230 230 228 228 228 230 226 225 226 225 225 222 224 225 225 220 221 221 225 228 225 225 224 222 217 213 212 208 210 209 204 205 205 198 201 197 191 177 168 167 171 169 166 174 189 177 190 184 179 191 180 190 188 199 192 196 198 210 219 217
231 243 249 246 251 236 229 231 241 245 235 233 228 225 226 230 230 226 228 227 221 222 230 229 232 230 230 232 234 231 235 224 226 227 228 228 228 224 229 226 225 223 221 224 226 227 225 223 222 219 221 212 206 203 198 197 200 203 202 201 199 191 190 183 168 168 169 174 177 182 186 178 175 194 184 181 173 187 183 194 201 208 214 220 220
227 250 259 255 255 246 239 239 249 249 242 233 226 228 227 230 229 228 231 222 223 230 230 231 232 231 230 233 237 237 236 227 225 226 226 226 227 226 231 227 229 228 225 223 224 223 218 212 212 216 210 197 197 198 195 190 190 197 196 194 197 200 193 176 169 159 163 173 172 181 188 172 187 175 173 161 166 185 181 200 191 203 211 220 199
247 256 268 270 261 251 240 240 248 252 244 233 230 234 231 239 235 229 221 223 226 228 229 232 233 232 234 235 241 241 240 230 227 226 226 225 224 224 230 228 231 232 228 224 222 222 219 217 212 212 202 198 202 192 190 190 187 188 186 187 190 194 188 181 167 155 164 161 167 170 167 176 166 158 164 174 181 184 183 186 187 197 177 79 51
262 272 271 263 253 248 237 247 251 252 246 238 237 241 237 236 239 230 227 235 238 239 242 236 238 235 234 234 239 245 242 230 227 226 226 227 225 226 228 227 229 230 229 225 225 224 220 213 212 210 204 205 206 197 189 182 179 178 180 181 181 181 189 172 156 133 138 149 161 157 158 171 172 160 164 171 174 138 100 79 89 113 138 170 215
272 266 266 267 260 253 238 245 255 252 244 243 244 243 241 241 241 224 231 234 235 232 238 234 236 236 237 234 238 246 245 231 228 225 224 224 224 227 226 228 229 229 229 224 224 222 216 209 208 209 203 206 200 197 189 186 179 180 179 180 177 173 176 159 151 143 146 159 166 169 170 176 180 179 178 175 165 150 129 138 184 160 161 209 231
294 291 287 283 274 265 246 239 251 252 243 240 244 245 241 244 239 217 225 234 237 236 237 242 239 236 235 236 232 242 244 232 229 228 225 223 219 222 223 227 232 230 234 228 224 219 216 209 204 204 202 199 192 189 182 178 180 183 181 177 174 176 172 155 140 161 172 180 184 185 188 187 187 189 190 188 180 160 161 194 183 157 200 202 223
324 315 303 293 286 273 259 248 249 255 253 251 245 249 242 239 237 219 230 234 242 239 235 238 242 237 235 237 235 236 245 236 228 230 227 225 222 221 220 226 233 230 226 229 213 214 213 210 205 200 194 188 184 186 185 187 185 182 181 177 183 185 181 165 167 164 176 178 191 190 198 199 193 191 198 197 191 177 186 188 159 178 196 205 201
293 286 286 290 288 279 259 252 252 250 256 261 255 249 253 253 241 230 235 230 242 237 237 237 242 242 232 235 235 233 239 238 226 230 229 228 223 219 216 221 229 227 221 217 208 215 208 204 200 195 186 182 182 189 193 188 183 184 179 189 186 193 164 173 178 173 184 183 181 181 183 182 182 185 190 199 202 186 188 186 180 183 191 195 193
291 289 292 292 289 280 270 249 259 256 247 256 258 259 244 245 244 235 241 238 240 245 239 241 243 247 234 232 232 233 228 235 229 224 229 228 225 218 219 220 223 219 218 211 210 207 202 198 195 186 182 177 183 193 196 189 186 188 192 196 196 172 162 173 176 179 175 174 174 180 171 164 173 177 184 192 192 179 178 190 185 187 183 186 189
292 296 291 287 286 282 276 271 254 260 264 255 261 257 250 240 241 240 240 238 241 245 244 243 246 251 244 233 231 235 226 226 227 224 226 228 226 220 219 220 209 211 211 214 205 206 196 188 183 183 186 182 187 192 195 189 185 186 194 188 174 160 159 158 162 165 170 174 174 181 177 182 188 190 194 195 194 187 178 174 181 185 192 183 184
300 297 295 293 288 282 279 273 270 263 262 252 252 261 257 246 244 236 239 242 243 249 246 244 246 254 252 242 237 235 229 230 223 223 225 227 228 225 220 218 196 202 207 211 203 202 192 191 192 190 187 184 186 192 196 188 186 184 175 181 176 154 149 146 159 168 173 175 170 183 192 194 198 201 199 200 196 186 181 180 182 181 190 189 190
312 304 297 290 290 284 276 272 267 264 261 260 254 258 260 247 247 234 231 234 242 247 250 241 246 252 254 257 242 238 233 225 230 226 226 227 229 228 225 217 191 207 203 214 200 195 193 194 186 184 187 188 191 197 200 192 184 177 180 185 178 161 144 148 159 170 168 167 178 191 199 200 199 204 204 193 183 185 181 179 179 180 178 177 173
309 298 293 288 285 283 281 273 271 268 261 250 258 255 259 244 249 240 221 236 234 244 250 227 238 247 254 254 251 241 232 228 233 235 232 232 231 231 229 222 203 188 195 212 198 196 183 174 169 182 190 190 194 200 202 197 186 182 185 187 178 148 149 153 166 164 172 183 193 197 199 200 201 200 171 170 174 154 147 136 129 116 102 102 95
306 295 292 286 282 285 287 284 273 266 264 251 246 248 248 245 240 244 217 234 234 238 248 233 240 242 248 249 246 234 226 224 234 238 239 236 238 237 232 224 216 206 201 195 184 175 178 170 179 188 192 196 198 202 203 200 191 184 188 185 178 167 163 164 167 176 186 186 189 197 200 181 182 180 172 165 159 169 158 154 142 135 135 137 131
289 289 286 288 286 281 279 282 287 278 262 261 250 251 247 247 246 247 229 233 238 240 242 238 239 239 243 246 238 230 223 220 230 235 234 227 227 230 230 231 219 204 199 182 171 173 173 169 178 188 193 200 201 200 201 196 195 191 187 185 184 178 175 178 179 184 182 179 188 189 171 168 150 153 168 164 173 170 168 158 158 162 148 152 165
283 284 284 286 286 286 280 280 280 282 270 252 263 259 247 236 241 239 228 224 229 240 233 234 232 228 239 239 235 231 227 224 223 223 224 216 222 216 219 210 196 192 188 180 164 158 158 168 179 185 192 203 206 203 200 197 197 194 186 176 180 180 178 186 185 172 173 169 157 149 155 160 169 173 164 173 177 165 158 156 159 152 146 136 135
288 286 285 283 282 282 276 282 279 281 283 272 252 246 253 244 238 252 243 217 223 230 232 238 230 229 229 224 211 230 228 224 230 216 213 213 207 202 202 198 190 189 183 159 138 139 148 165 175 180 187 195 202 205 199 193 199 197 191 180 170 172 168 169 182 186 177 162 171 170 167 163 168 165 168 170 173 157 153 145 153 144 133 158 189
292 288 286 282 282 287 282 279 278 277 276 280 286 283 244 233 233 238 260 238 233 237 228 235 226 218 226 229 204 211 224 233 193 193 209 215 217 212 206 194 188 173 163 162 153 158 174 176 185 184 189 192 199 203 201 198 196 194 192 183 173 167 174 183 183 178 169 172 166 163 167 166 169 168 168 167 118 120 162 165 154 149 147 167 168
293 288 292 290 289 289 289 288 281 272 273 274 274 275 292 289 257 244 240 243 236 238 241 243 236 219 207 232 237 232 236 166 179 197 205 213 218 218 206 188 180 171 168 159 161 175 181 189 192 191 193 194 200 203 202 200 196 191 186 180 177 178 181 185 184 162 162 164 165 168 165 172 172 166 168 164 157 141 139 132 136 153 160 161 176
295 296 301 297 301 295 290 287 288 282 277 263 260 268 274 283 290 288 266 244 246 240 240 242 241 234 225 221 213 246 207 188 191 194 201 209 216 216 212 199 191 177 180 171 175 190 192 193 194 193 191 195 200 198 196 195 195 191 181 182 186 185 187 193 174 159 163 163 164 164 167 171 168 167 166 162 159 160 161 159 159 155 159 153 184
285 289 290 293 291 292 290 290 283 280 279 278 270 257 259 261 276 283 302 298 258 256 256 249 241 233 221 225 212 196 195 192 197 200 202 209 212 215 214 208 200 191 185 189 187 196 196 199 200 198 194 200 197 194 192 189 187 186 186 190 191 189 193 179 155 165 167 169 160 167 167 165 160 160 162 161 163 166 169 171 166 161 160 172 193
281 280 289 289 291 287 283 272 273 271 260 257 260 256 249 247 252 266 277 290 326 328 298 247 237 232 227 207 201 208 200 191 196 196 199 203 212 218 215 211 207 203 198 202 196 198 195 199 200 198 195 193 193 184 184 182 181 183 185 193 189 170 168 151 161 168 162 164 165 158 154 155 154 157 164 166 174 164 166 170 160 163 181 189 195
287 280 274 274 272 275 274 269 265 264 263 254 251 248 250 249 247 247 241 247 253 257 268 292 262 215 216 233 215 209 199 192 192 195 198 203 211 211 205 200 203 209 208 201 196 192 192 195 196 194 188 189 186 179 184 178 177 182 186 183 169 159 155 164 170 157 152 151 148 154 158 159 166 169 165 168 168 172 168 162 168 173 181 188 190
296 291 292 281 276 274 272 271 262 258 257 252 244 244 247 243 238 237 239 239 238 241 251 217 208 273 236 231 230 223 217 213 211 208 207 207 207 201 199 205 200 207 204 196 190 191 187 193 191 195 190 191 183 186 186 183 187 185 179 169 168 160 157 158 154 148 154 157 161 158 161 169 169 170 168 169 172 171 167 166 168 177 181 185 180
300 298 294 292 286 284 283 275 268 257 253 250 241 240 234 235 233 236 234 236 242 251 258 292 327 301 316 168 259 237 225 218 214 208 210 208 201 198 204 204 202 198 205 197 182 172 185 188 185 183 178 182 180 181 177 183 176 168 169 161 151 156 163 158 158 158 161 166 165 168 170 171 169 172 166 167 169 167 167 166 169 173 177 181 173
287 287 289 293 291 287 285 276 270 263 256 242 234 228 230 228 222 222 224 232 237 232 233 230 232 230 224 253 50 146 261 219 215 212 206 207 206 202 199 192 193 202 204 197 166 140 161 145 159 167 168 165 169 165 168 170 167 163 164 156 161 168 172 173 177 168 172 168 169 169 168 167 168 166 165 165 167 166 168 169 168 175 175 175 173
291 290 291 290 290 284 272 275 272 261 254 243 233 227 230 228 224 220 224 221 224 226 235 215 211 221 229 231 216 198 154 212 201 202 189 186 194 181 164 171 177 188 173 154 117 147 155 161 160 151 163 170 168 172 173 172 168 170 166 161 165 168 175 170 173 172 170 172 166 169 169 169 166 166 162 159 168 167 170 173 178 177 177 183 190
302 298 296 299 295 289 273 268 263 257 251 244 244 230 235 226 223 224 220 218 219 220 214 219 220 221 197 160 204 189 185 211 202 174 171 172 179 147 152 169 178 178 178 164 162 164 171 169 171 172 173 175 177 176 181 174 176 175 171 174 171 179 181 174 175 172 175 168 167 171 172 168 164 158 161 169 173 173 177 182 186 186 186 185 181
303 300 299 300 296 290 284 272 261 255 256 248 248 235 234 234 236 242 239 239 234 230 226 225 237 229 199 224 221 199 165 186 174 178 183 191 182 161 171 174 173 176 170 168 169 172 175 172 175 181 177 179 179 178 178 178 174 174 179 177 177 182 176 173 173 171 168 165 168 170 171 164 162 162 172 180 172 174 184 179 177 177 176 172 163
300 301 303 301 300 295 287 277 268 266 262 256 251 242 240 234 227 216 227 231 237 231 229 233 218 199 215 221 231 227 194 176 162 173 187 192 195 177 155 158 167 163 162 160 161 164 165 167 177 178 183 183 180 182 173 179 179 177 176 176 179 175 175 177 174 168 166 169 168 170 169 167 166 168 170 167 174 174 166 169 171 167 167 168 164
298 295 294 292 295 292 289 289 295 286 270 264 252 264 256 236 229 229 231 235 237 227 228 230 225 159 211 236 232 238 204 171 154 182 182 191 145 121 123 136 138 139 150 147 154 155 161 167 176 185 186 191 188 182 183 183 177 175 174 177 177 176 174 166 163 166 162 164 168 166 164 166 164 165 166 165 168 168 174 169 163 167 170 163 166
295 295 293 292 297 304 312 316 305 296 291 297 299 290 276 253 238 216 224 220 221 205 217 217 188 193 213 242 230 228 207 175 172 175 164 141 112 95 69 62 71 77 93 118 148 151 159 167 173 181 182 186 187 182 181 176 170 172 172 167 169 167 165 164 167 166 163 161 157 156 156 158 161 161 164 161 155 162 159 158 162 167 163 169 161
295 297 301 309 317 330 325 342 350 337 347 343 358 2 3 348 280 250 216 212 190 176 181 174 165 195 212 232 229 226 201 157 166 159 162 152 137 107 92 79 74 88 96 91 62 145 156 160 156 153 153 132 131 153 159 163 171 171 170 163 160 165 170 170 175 169 164 162 158 158 159 160 166 166 164 163 169 165 166 174 172 157 159 164 171
309 314 321 328 331 339 351 348 353 355 353 357 350 355 359 2 0 359 352 1 21 72 88 76 145 231 240 256 271 301 53 95 122 123 130 123 113 104 106 99 79 64 48 28 8 8 93 127 150 157 154 143 115 79 53 63 69 71 105 132 148 159 158 154 146 150 163 163 160 163 160 161 163 169 167 162 169 171 173 165 167 176 178 177 188
316 328 338 347 350 355 358 1 10 2 6 6 9 5 7 12 6 4 10 14 12 18 24 29 24 356 353 354 358 41 72 93 92 83 71 71 93 91 94 94 91 82 57 32 26 22 24 45 67 100 115 110 111 99 78 56 63 61 46 58 83 96 99 115 124 137 143 140 141 143 153 157 157 155 158 152 155 169 166 172 175 178 179 178 180
328 337 346 355 358 4 4 2 3 4 21 18 20 15 15 9 16 14 5 7 18 10 9 5 8 357 5 7 14 16 47 40 72 80 83 71 52 54 76 91 86 89 79 62 36 25 31 31 42 65 94 101 109 104 100 103 86 86 73 48 71 98 108 111 111 107 117 123 135 142 149 153 155 159 162 168 172 168 168 177 170 177 175 179 175
343 348 354 0 10 10 11 6 7 2 3 6 17 22 17 22 22 20 14 18 18 14 7 2 358 1 11 8 353 39 59 37 35 46 68 51 64 61 47 54 75 84 82 84 61 44 40 35 36 42 59 62 74 95 97 96 75 32 71 77 87 102 111 113 116 123 129 128 132 134 139 143 153 160 161 167 170 170 174 164 169 174 172 172 171
353 357 358 357 5 10 15 21 16 11 2 6 25 31 24 29 21 17 13 18 19 18 8 8 5 356 355 353 357 4 28 60 67 68 63 53 50 57 66 76 73 69 67 73 51 44 37 41 49 51 48 46 52 55 64 74 81 91 49 111 126 121 115 119 120 128 132 139 138 145 145 144 145 151 162 165 163 165 169 173 172 170 173 173 181
359 5 7 7 5 6 9 16 20 15 7 0 3 15 22 30 28 22 25 31 31 20 19 18 15 11 15 8 2 4 16 25 32 41 46 49 48 57 65 68 58 67 83 76 60 53 49 50 54 66 73 67 79 91 93 98 107 140 153 146 135 130 126 122 124 132 122 122 126 131 142 148 153 153 158 158 157 168 177 163 166 172 174 179 175